Regional Weather Roundup
Issued by NWS

Home | Current Version | Previous Version | Text Only | Print | Product List | Glossary On
Versions: 1 2 3 4 5 6 7 8 9 10 11 12 13 14 15 16 17 18 19 20 21 22 23 24 25 26 27 28 29 30 31 32 33 34 35 36 37 38 39 40 41 42 43 44 45 46 47 48 49 50
870
ASUS43 KMKX 260900
RWRWI

WISCONSIN REGIONAL WEATHER ROUNDUP
NATIONAL WEATHER SERVICE MILWAUKEE/SULLIVAN WI
400 AM CDT WED APR 26 2017

NOTE: "FAIR" INDICATES FEW OR NO CLOUDS BELOW 12,000 FEET WITH NO
SIGNIFICANT WEATHER AND/OR OBSTRUCTIONS TO VISIBILITY.

WIZ001-002-006>008-014>016-023>028-261000-
NORTHWEST WISCONSIN

CITY           SKY/WX    TMP DP  RH WIND       PRES   REMARKS
SUPERIOR ARPT  LGT RAIN  34  32  94 E15G26    29.67F WCI  24
ASHLAND        FRZ RAIN  32  29  88 NE22G32   29.66F WCI  19
HAYWARD        LGT RAIN  33  30  88 NE13      29.56F FOG     WCI  24
SIREN          LGT RAIN  34  32  94 NE12G20   29.56F WCI  25
CUMBERLAND     RAIN      34  32  93 NE14      29.51F WCI  24
RICE LAKE      RAIN      38  36  94 N14       29.52S WCI  29
CHETEK         RAIN      40  40  97 E7        29.50F
LADYSMITH      DRIZZLE   39  37  94 NE12      29.52F WCI  32
EAU CLAIRE     NOT AVBL
MENOMONIE      LGT RAIN  44  44  99 N10       29.46F
NEW RICHMOND   LGT RAIN  40  39  97 NE15      29.48F WCI  32
OSCEOLA        LGT RAIN  39  39 100 N13G18    29.53F WCI  31
$$

WIZ003>005-009-010-017-018-261000-
NORTH CENTRAL WISCONSIN

CITY           SKY/WX    TMP DP  RH WIND       PRES   REMARKS
MANITOWISH WTR RAIN      34  34 100 NE10      29.57F WCI  26
ARBOR VITAE    LGT RAIN  39  38  94 NE7       29.54F WCI  34
WOODRUFF       LGT RAIN  39  38  94 NE7       29.54F WCI  34
RHINELANDER    LGT RAIN  44  44 100 NE8       29.53F
EAGLE RIVER    LGT RAIN  39  39 100 N3        29.54F
LAND O LAKES   RAIN      37  37  99 N8        29.59F WCI  31
PHILLIPS       DRIZZLE   36  36 100 NE9       29.52F WCI  29
TOMAHAWK       DRIZZLE   43  42  95 NE7       29.51F
MEDFORD        DRIZZLE   53  51  95 NE12      29.46F
MERRILL        LGT RAIN  54  54 100 E6        29.49F
$$

WIZ029-030-035-036-043>047-261000-
CENTRAL WISCONSIN

CITY           SKY/WX    TMP DP  RH WIND       PRES   REMARKS
WAUSAU         CLOUDY    54  53  97 E9        29.45F
MOSINEE        CLOUDY    54  54 100 E9        29.47F
MARSHFIELD     LGT RAIN  56  53  90 E6        29.44F FOG
STEVENS POINT  LGT RAIN  55  55  99 E8        29.47F
WAUPACA        LGT RAIN  58  55  90 E9        29.47F
WAUTOMA        NOT AVBL
WISC RAPIDS    LGT RAIN  58  56  93 E5        29.45F
CAMP DOUGLAS   CLOUDY    54  54 100 E6        29.41F
$$

WIZ011>013-019>022-031-037>040-048>050-261000-
NORTHEAST WISCONSIN

CITY           SKY/WX    TMP DP  RH WIND       PRES   REMARKS
ANTIGO         CLOUDY    51  50  99 SE15      29.50S
SHAWANO        DRIZZLE   54  50  89 NE6       29.52S
OCONTO         CLOUDY    47  46  94 CALM      29.53F
STURGEON BAY   CLOUDY    52  49  89 MISG      29.52F
GREEN BAY      MOCLDY    53  53 100 NE6       29.49F
MANITOWOC      NOT AVBL
APPLETON       LGT RAIN  55  50  82 E5        29.47F
CLINTONVILLE   RAIN      52  52 100 E7        29.49F
OSHKOSH        CLOUDY    59  53  80 SE9       29.45F
$$

WIZ032>034-041-042-053>061-261000-
SOUTHWEST WISCONSIN

CITY           SKY/WX    TMP DP  RH WIND       PRES   REMARKS
LA CROSSE      CLOUDY    57  55  93 CALM      29.40S
SPARTA         CLOUDY    53  53 100 CALM      29.42F
VIROQUA        CLOUDY    55  55  99 E6        29.40F
BOSCOBEL       CLOUDY    58  56  93 N5        29.39F
PRAIRIE DU CHI CLOUDY    57  56  96 CALM      29.38F FOG
PLATTEVILLE    CLOUDY    60  57  88 SE5       29.40F
$$

WIZ056-057-062-063-064-067-068-261000-
SOUTH CENTRAL WISCONSIN

CITY           SKY/WX    TMP DP  RH WIND       PRES   REMARKS
REEDSBURG      CLOUDY    60  54  78 CALM      29.41F
BARABOO/DELLS  CLOUDY    60  51  71 CALM      29.42F
LONE ROCK      NOT AVBL
MINERAL POINT  DRIZZLE   61  55  82 SE3       29.41F
MADISON        CLOUDY    60  55  83 CALM      29.42F
MIDDLETON      CLOUDY    61  56  82 CALM      29.44F
WATERTOWN      CLOUDY    61  54  76 SE7       29.45F
MONROE         CLOUDY    63  52  67 SE7       29.42F
JANESVILLE     CLOUDY    68  52  56 S7        29.43F
$$

WIZ051-052-058>065-066-070>072-261000-
SOUTHEAST WISCONSIN

CITY           SKY/WX    TMP DP  RH WIND       PRES   REMARKS
MILWAUKEE      CLOUDY    59  52  77 SE9       29.48F
WAUKESHA       CLOUDY    59  50  72 E7        29.49S
MILWAUKEE/TIMM CLOUDY    57  46  67 SE3       29.50S
RACINE         PTCLDY    56  49  77 S10       29.50F
KENOSHA        PTCLDY    59  52  77 SE8       29.48F
FOND DU LAC    MOCLDY    60  51  72 SE10      29.45F
SHEBOYGAN      PTCLDY    55  50  83 S9        29.50F
WEST BEND      CLOUDY    55  52  88 SE5       29.48F
JUNEAU         CLOUDY    60  53  76 SE8       29.47S
$$

LSZ147-162-261000-
LAKE SUPERIOR

STATION/POSITION TIME  TEMP    WIND        PRES    WAVE
                       AIR SEA DIR/SP/G            HT/PER
                 (UTC) (F)     (DEG/KT/KT) (MB)    (FT/S)
DEVILS ISLAND    0800   31      50/ 10/ 11 1007.4F
SAXON HARBOR     0830   35      40/ 26/ 31 1004.1F
$$

LMZ867-665-643>646-261000-
LAKE MICHIGAN

STATION/POSITION TIME  TEMP    WIND        PRES    WAVE
                       AIR SEA DIR/SP/G            HT/PER
                 (UTC) (F)     (DEG/KT/KT) (MB)    (FT/S)
CHAMBERS ISLAND  0840   40      10/  8/ 10 1000.3F
N MID LAKE BUOY  0750   41 37   90/ 10/ 12 1003.1F   2/ 4
NORTHPORT PIER   0840   44      70/  5/  7 1001.0F
KEWAUNEE LAKESHO 0830   52     180/  6/ 10  999.5F
SHEBOYGAN LAKESH 0800   51     180/ 13/ 17  999.5F
PORT WASHINGTON  0830   51     160/  5/  7 1000.0F
MILWAUKEE LAKESH 0830   50     120/  4/  5   N/A
S MID LAKE BUOY  0750   49 41  110/ 14/ 14 1000.1F   1/ 2
KENOSHA   LAKESH 0800   53     170/ 13/ 14  999.3
$$

TC  - TEMPERATURE IN CELSIUS
VSB - VISIBILITY IN STATUTE MILES
WCI - WIND CHILL INDEX
HX  - HEAT INDEX





USA.gov is the U.S. government's official web portal to all federal, state and local government web resources and services.